Miscellaneous Local Product
Issued by NWS Hastings, NE

Home | Current Version | Previous Version | Graphics & Text | Print | Product List | Glossary On
Versions: 1 2 3 4 5 6 7 8 9 10 11 12 13 14 15 16 17 18 19 20 21 22 23 24 25 26 27 28 29 30 31 32 33 34 35 36 37 38 39 40 41 42 43 44 45 46 47 48 49 50
000
AXUS43 KGID 260202
MISGRI

GID CWA HOURLY WEATHER ROUNDUP
NATIONAL WEATHER SERVICE HASTINGS NE
900 PM CDT FRI JUL 25 2014

NOTE: "FAIR" INDICATES FEW OR NO CLOUDS BELOW 12,000 FEET WITH NO
SIGNIFICANT WEATHER AND/OR OBSTRUCTIONS TO VISIBILITY.

...SOUTH CENTRAL NEBRASKA...

CITY           SKY/WX    TMP DP  RH WIND       PRES   REMARKS
GRAND ISLAND   PTCLDY    83  75  77 N5        29.81S HX  90
HASTINGS       CLEAR     83  70  64 CALM      29.81S
KEARNEY        PTCLDY    81  70  69 N8        29.83S
ORD            PTCLDY    78  74  87 SW5       29.82R
YORK           PTCLDY    81  77  89 N5        29.79S
AURORA         PTCLDY    80  77  90 NE5       29.80R
LEXINGTON      MOCLDY    81  73  77 NE5       29.85R HAZE
HOLDREGE       PTCLDY    78  72  80 CALM      29.83S
HEBRON         CLEAR     82  73  73 CALM      29.77R

...NEBRASKA PANHANDLE...

CITY           SKY/WX    TMP DP  RH WIND       PRES   REMARKS
CHADRON        PTCLDY    84  53  34 S20       29.83F
ALLIANCE       MOCLDY    76  57  51 SE13      29.92F
SCOTTSBLUFF    MOCLDY    74  64  71 SE12      29.95R
SIDNEY         LGT RAIN  82  54  37 NW12G28   30.05R

...WESTERN AND NORTH CENTRAL NEBRASKA...

CITY           SKY/WX    TMP DP  RH WIND       PRES   REMARKS
VALENTINE      MOCLDY    82  61  48 W8        29.89R
AINSWORTH      PTCLDY    82  67  60 SE3       29.87R
ONEILL         PTCLDY    85  69  60 SW3       29.82R
BROKEN BOW     PTCLDY    78  71  79 N3        29.86R
IMPERIAL       CLOUDY    82  66  58 SE5       29.91R
NORTH PLATTE   CLOUDY    79  71  76 E5        29.87R
MCCOOK         CLOUDY    84  69  60 E3        29.86R

...EASTERN NEBRASKA...

CITY           SKY/WX    TMP DP  RH WIND       PRES   REMARKS
NORFOLK        PTCLDY    81  73  76 CALM      29.79R
SO SIOUX CITY  CLOUDY    82  73  74 E7        29.76R
COLUMBUS       MOCLDY    82  73  74 NW6       29.78R
ALBION         PTCLDY    81  73  77 CALM      29.81R
OMAHA EPPLEY   MOCLDY    85  76  74 E6        29.73R HX  94
OFFUTT AFB     PTCLDY    84  83  99 NE7       29.72S HX 102
MILLARD        PTCLDY    85  74  68 CALM      29.73R HX  92
LINCOLN        PTCLDY    89  75  63 N7        29.76R HX  99
NEBRASKA CITY  CLEAR     85  75  71 N5        29.74R HX  93
BEATRICE       CLEAR     83  77  81 N5        29.75S HX  92
FALLS CITY     CLEAR     90  72  55 S7        29.72R HX  97

...NORTHERN KANSAS...

CITY           SKY/WX    TMP DP  RH WIND       PRES   REMARKS
GOODLAND       PTCLDY    83  65  54 E7        29.92F
HILL CITY      PTCLDY    86  69  56 NE8       29.81F HX  90
NORTON         CLEAR     81  64  57 NE5       29.83S
PHILLIPSBURG   CLEAR     88  66  48 N6        29.80R HX  90
SMITH CENTER   CLEAR     88  70  55 NE10      29.78F HX  92
HAYS           CLEAR     90  70  51 NE6       29.78F HX  95
RUSSELL        CLEAR     89  68  49 W6        29.75R HX  93
CONCORDIA      CLEAR     90  73  57 NE7       29.75R HX  98
SALINA         CLEAR     95  62  33 S7        29.74R HX  96
TOPEKA         PTCLDY    93  70  46 S17G28    29.76R HX  99



USA.gov is the U.S. government's official web portal to all federal, state and local government web resources and services.